^^
Saratoga-Weather Station Historical Data
Daily Summary for July 04, 2022 Units:  English    Metric   Both
Daily Weekly Monthly Yearly Custom
  High: Low: Average:
Temperature: 78.4 °F 56.5 °F 68.9 °F
Dew Point: 55.8 °F 51.3 °F 52.9 °F
Humidity: 84% 40% 59%
Wind Speed: 10.1mph 0mph 2.2mph
Wind Gust: 12mph - -
Wind- - WSW
Pressure: 30.1 in 30 in -
Precipitation: 0 in    
Historical Graphs
 
 
Tabular Data for July 04, 2022
Time Temperature Dew Point Pressure Wind Wind Speed Wind Gust Humidity Rainfall Rate (Hourly) solar
00:03 64.9 °F 53.2 °F 30.1 in WNW 0.9 mph 6 mph 66% 0 in 0 W/m2
00:08 65.1 °F 53.4 °F 30.1 in West 0.9 mph 6 mph 66% 0 in 0 W/m2
00:13 65.1 °F 53.1 °F 30.1 in West 2 mph 6 mph 65% 0 in 0 W/m2
00:18 64.9 °F 52.9 °F 30.1 in West 2 mph 3 mph 65% 0 in 0 W/m2
00:23 64.8 °F 53.1 °F 30.1 in West 2 mph 6 mph 66% 0 in 0 W/m2
00:28 64.6 °F 52.9 °F 30.1 in West 2.9 mph 4 mph 66% 0 in 0 W/m2
00:33 64.2 °F 52.7 °F 30.1 in West 2 mph 4 mph 66% 0 in 0 W/m2
00:38 64 °F 52.5 °F 30.1 in West 2.9 mph 3 mph 66% 0 in 0 W/m2
00:43 64 °F 52.5 °F 30.1 in West 2.9 mph 4 mph 66% 0 in 0 W/m2
00:48 64 °F 52.5 °F 30.1 in West 2.9 mph 3 mph 66% 0 in 0 W/m2
00:53 64 °F 52.5 °F 30.1 in WSW 2.9 mph 5 mph 66% 0 in 0 W/m2
00:58 64 °F 52.5 °F 30.1 in West 2 mph 3 mph 66% 0 in 0 W/m2
01:03 64 °F 52.5 °F 30.1 in West 2 mph 4 mph 66% 0 in 0 W/m2
01:08 63.9 °F 52.7 °F 30.1 in West 2 mph 3 mph 67% 0 in 0 W/m2
01:13 63.5 °F 52.3 °F 30.1 in WSW 2 mph 3 mph 67% 0 in 0 W/m2
01:18 63.1 °F 52.3 °F 30.1 in West 2.9 mph 4 mph 68% 0 in 0 W/m2
01:23 63 °F 52.2 °F 30.1 in West 4 mph 4 mph 68% 0 in 0 W/m2
01:28 62.8 °F 52.5 °F 30.1 in WSW 2 mph 4 mph 69% 0 in 0 W/m2
01:33 62.4 °F 52.2 °F 30.1 in West 4 mph 5 mph 69% 0 in 0 W/m2
01:38 62.4 °F 52.2 °F 30.1 in WSW 4 mph 7 mph 69% 0 in 0 W/m2
01:43 62.4 °F 52.2 °F 30.1 in WSW 2.9 mph 5 mph 69% 0 in 0 W/m2
01:48 62.4 °F 52.2 °F 30.1 in WSW 2.9 mph 5 mph 69% 0 in 0 W/m2
01:53 62.4 °F 52.2 °F 30.1 in West 4 mph 5 mph 69% 0 in 0 W/m2
01:58 62.2 °F 52 °F 30.1 in West 2.9 mph 7 mph 69% 0 in 0 W/m2
02:03 62.2 °F 52 °F 30.1 in WSW 2 mph 8 mph 69% 0 in 0 W/m2
02:08 62.1 °F 51.8 °F 30.1 in WSW 2.9 mph 5 mph 69% 0 in 0 W/m2
02:13 62.1 °F 51.8 °F 30.1 in WSW 2.9 mph 5 mph 69% 0 in 0 W/m2
02:18 61.9 °F 52 °F 30.1 in WSW 4 mph 4 mph 70% 0 in 0 W/m2
02:23 61.9 °F 52 °F 30.1 in West 2 mph 4 mph 70% 0 in 0 W/m2
02:28 61.7 °F 51.8 °F 30.1 in West 2.9 mph 4 mph 70% 0 in 0 W/m2
02:33 61.5 °F 51.6 °F 30.1 in West 0.9 mph 2 mph 70% 0 in 0 W/m2
02:38 61.3 °F 51.8 °F 30.1 in West 2 mph 3 mph 71% 0 in 0 W/m2
02:43 61.2 °F 51.6 °F 30.1 in WSW 2 mph 3 mph 71% 0 in 0 W/m2
02:48 61 °F 52 °F 30.1 in West 0.9 mph 3 mph 72% 0 in 0 W/m2
02:53 60.6 °F 51.6 °F 30.1 in WSW 2 mph 3 mph 72% 0 in 0 W/m2
02:58 60.6 °F 51.6 °F 30.1 in WNW 0.9 mph 2 mph 72% 0 in 0 W/m2
03:03 60.6 °F 52 °F 30.1 in West 0.9 mph 2 mph 73% 0 in 0 W/m2
03:08 60.4 °F 51.8 °F 30.1 in West 0.9 mph 2 mph 73% 0 in 0 W/m2
03:13 60.4 °F 51.8 °F 30.1 in WSW 0.9 mph 2 mph 73% 0 in 0 W/m2
03:18 60.3 °F 51.6 °F 30.1 in WSW 0.9 mph 1 mph 73% 0 in 0 W/m2
03:23 59.9 °F 51.6 °F 30.1 in WSW 0.9 mph 2 mph 74% 0 in 0 W/m2
03:28 59.7 °F 51.4 °F 30.1 in Calm     74% 0 in 0 W/m2
03:33 59.5 °F 51.6 °F 30.1 in Calm     75% 0 in 0 W/m2
03:38 59.2 °F 51.6 °F 30.1 in Calm     76% 0 in 0 W/m2
03:44 58.8 °F 51.3 °F 30.1 in Calm     76% 0 in 0 W/m2
03:49 58.6 °F 51.4 °F 30.1 in Calm     77% 0 in 0 W/m2
03:54 58.5 °F 51.3 °F 30.1 in Calm     77% 0 in 0 W/m2
03:59 58.3 °F 51.4 °F 30.1 in WSW 1 mph 1 mph 78% 0 in 0 W/m2
04:04 58.1 °F 51.3 °F 30.1 in WSW 0.9 mph 1 mph 78% 0 in 0 W/m2
04:09 57.9 °F 51.4 °F 30.1 in WSW 0.9 mph 1 mph 79% 0 in 0 W/m2
04:14 57.7 °F 51.6 °F 30.1 in WSW 0.9 mph 2 mph 80% 0 in 0 W/m2
04:19 57.7 °F 51.6 °F 30.1 in WSW 0.9 mph 1 mph 80% 0 in 0 W/m2
04:24 57.7 °F 51.6 °F 30.1 in WSW 0.9 mph 1 mph 80% 0 in 0 W/m2
04:29 57.7 °F 51.6 °F 30.1 in Calm   3 mph 80% 0 in 0 W/m2
04:34 57.7 °F 51.6 °F 30.1 in Calm   2 mph 80% 0 in 0 W/m2
04:39 57.7 °F 51.6 °F 30.1 in Calm     80% 0 in 0 W/m2
04:44 57.6 °F 51.8 °F 30.1 in Calm     81% 0 in 0 W/m2
04:49 57.4 °F 51.6 °F 30.1 in Calm   2 mph 81% 0 in 0 W/m2
04:54 57.2 °F 51.4 °F 30.1 in Calm     81% 0 in 0 W/m2
04:59 57 °F 51.6 °F 30.1 in Calm   2 mph 82% 0 in 0 W/m2
05:04 57 °F 51.6 °F 30.1 in WNW 0.9 mph 2 mph 82% 0 in 0 W/m2
05:09 57.2 °F 51.8 °F 30.1 in WSW 0.9 mph 2 mph 82% 0 in 0 W/m2
05:14 57.4 °F 51.6 °F 30.1 in NW 0.9 mph 2 mph 81% 0 in 0 W/m2
05:19 57.6 °F 51.8 °F 30.1 in Calm     81% 0 in 0 W/m2
05:24 57.6 °F 51.8 °F 30.1 in Calm   1 mph 81% 0 in 0 W/m2
05:29 57.6 °F 51.8 °F 30.1 in West 2 mph 2 mph 81% 0 in 0 W/m2
05:34 57.6 °F 51.8 °F 30.1 in Calm   1 mph 81% 0 in 0 W/m2
05:39 57.6 °F 51.8 °F 30.1 in Calm   1 mph 81% 0 in 5 W/m2
05:44 57.4 °F 51.6 °F 30.1 in Calm     81% 0 in 5 W/m2
05:49 57.2 °F 51.4 °F 30.1 in Calm   1 mph 81% 0 in 7 W/m2
05:54 57 °F 51.6 °F 30.1 in Calm     82% 0 in 9 W/m2
05:59 56.8 °F 51.4 °F 30.1 in Calm   2 mph 82% 0 in 11 W/m2
06:04 56.8 °F 51.4 °F 30.1 in Calm   1 mph 82% 0 in 12 W/m2
06:09 56.7 °F 51.6 °F 30.1 in Calm     83% 0 in 14 W/m2
06:14 56.7 °F 51.6 °F 30.1 in Calm     83% 0 in 16 W/m2
06:19 56.5 °F 51.4 °F 30.1 in Calm     83% 0 in 18 W/m2
06:24 56.5 °F 51.4 °F 30.1 in Calm     83% 0 in 19 W/m2
06:29 56.5 °F 51.4 °F 30.1 in Calm     83% 0 in 21 W/m2
06:34 56.5 °F 51.6 °F 30.1 in Calm     84% 0 in 21 W/m2
06:39 56.5 °F 51.6 °F 30.1 in Calm     84% 0 in 23 W/m2
06:44 56.5 °F 51.4 °F 30.1 in Calm     83% 0 in 25 W/m2
06:49 56.5 °F 51.4 °F 30.1 in Calm     83% 0 in 25 W/m2
06:54 56.7 °F 51.8 °F 30.1 in Calm     84% 0 in 26 W/m2
06:59 56.8 °F 52 °F 30.1 in Calm     84% 0 in 26 W/m2
07:04 57 °F 52.2 °F 30.1 in Calm     84% 0 in 28 W/m2
07:09 57 °F 52 °F 30.1 in Calm     83% 0 in 30 W/m2
07:14 57.4 °F 52.3 °F 30.1 in Calm     83% 0 in 30 W/m2
07:19 57.7 °F 52.7 °F 30.1 in Calm     83% 0 in 33 W/m2
07:24 58.3 °F 53.1 °F 30.1 in Calm     83% 0 in 160 W/m2
07:29 59.2 °F 53.1 °F 30.1 in Calm     80% 0 in 174 W/m2
07:34 60.1 °F 53.6 °F 30.1 in Calm   2 mph 79% 0 in 192 W/m2
07:39 61.3 °F 53.8 °F 30.1 in Calm   2 mph 76% 0 in 207 W/m2
07:44 62.2 °F 53.8 °F 30.1 in Calm   2 mph 74% 0 in 223 W/m2
07:49 63.3 °F 54.1 °F 30.1 in Calm     72% 0 in 236 W/m2
07:54 63.9 °F 54.3 °F 30.1 in Calm   1 mph 71% 0 in 250 W/m2
07:59 64.8 °F 54.7 °F 30.1 in Calm   1 mph 70% 0 in 262 W/m2
08:04 65.5 °F 54.7 °F 30.1 in ENE 2 mph 2 mph 68% 0 in 274 W/m2
08:09 66.2 °F 54.5 °F 30.1 in ENE 0.9 mph 2 mph 66% 0 in 288 W/m2
08:14 66.6 °F 54.9 °F 30.1 in ENE 2 mph 3 mph 66% 0 in 299 W/m2
08:19 66.4 °F 54.7 °F 30.1 in ENE 0.9 mph 3 mph 66% 0 in 313 W/m2
08:24 66.4 °F 55 °F 30.1 in Calm   2 mph 67% 0 in 327 W/m2
08:29 66.4 °F 54.7 °F 30.1 in ENE 2 mph 4 mph 66% 0 in 120 W/m2
08:34 66.4 °F 54.7 °F 30.1 in Calm   4 mph 66% 0 in 128 W/m2
08:39 66.2 °F 54.5 °F 30.1 in Calm   3 mph 66% 0 in 58 W/m2
08:44 66 °F 54.3 °F 30.1 in Calm   1 mph 66% 0 in 47 W/m2
08:49 66 °F 54 °F 30.1 in NNW 0.9 mph 2 mph 65% 0 in 47 W/m2
08:54 66.6 °F 54.5 °F 30.1 in NE 0.9 mph 4 mph 65% 0 in 47 W/m2
08:59 66.9 °F 54.9 °F 30.1 in NE 0.9 mph 2 mph 65% 0 in 44 W/m2
09:04 66.9 °F 55.2 °F 30.1 in NNW 0.9 mph 3 mph 66% 0 in 44 W/m2
09:09 66.9 °F 54.3 °F 30.1 in ENE 0.9 mph 3 mph 64% 0 in 44 W/m2
09:14 67.1 °F 54.9 °F 30.1 in Calm   2 mph 65% 0 in 44 W/m2
09:19 66.9 °F 54.3 °F 30.1 in Calm   2 mph 64% 0 in 44 W/m2
09:24 67.1 °F 55.8 °F 30.1 in NE 0.9 mph 2 mph 67% 0 in 44 W/m2
09:29 67.6 °F 54.7 °F 30.1 in ESE 2 mph 4 mph 63% 0 in 44 W/m2
09:34 67.8 °F 54.3 °F 30.1 in ENE 2 mph 2 mph 62% 0 in 44 W/m2
09:39 68.4 °F 54.9 °F 30.1 in East 0.9 mph 4 mph 62% 0 in 44 W/m2
09:44 68.9 °F 54 °F 30.1 in Calm   3 mph 59% 0 in 46 W/m2
09:49 69.3 °F 54.3 °F 30.1 in ENE 4 mph 4 mph 59% 0 in 47 W/m2
09:54 69.1 °F 54.1 °F 30.1 in East 2 mph 3 mph 59% 0 in 56 W/m2
09:59 69.4 °F 54.5 °F 30.1 in Calm   1 mph 59% 0 in 221 W/m2
10:04 69.8 °F 54.3 °F 30.1 in East 4 mph 6 mph 58% 0 in 492 W/m2
10:09 70.2 °F 54.1 °F 30.1 in ESE 0.9 mph 2 mph 57% 0 in 605 W/m2
10:14 70.2 °F 54.1 °F 30.1 in South 0.9 mph 6 mph 57% 0 in 58 W/m2
10:19 70.3 °F 53.4 °F 30.1 in NE 0.9 mph 4 mph 55% 0 in 134 W/m2
10:24 70.3 °F 54 °F 30.1 in East 0.9 mph 5 mph 56% 0 in 664 W/m2
10:29 70.7 °F 53.8 °F 30.1 in SE 0.9 mph 2 mph 55% 0 in 610 W/m2
10:34 71.2 °F 54.3 °F 30.1 in ESE 2.9 mph 4 mph 55% 0 in 650 W/m2
10:40 71.4 °F 54 °F 30.1 in Calm   2 mph 54% 0 in 663 W/m2
10:45 71.6 °F 54.1 °F 30.1 in ENE 2.9 mph 7 mph 54% 0 in 689 W/m2
10:50 71.4 °F 54.5 °F 30.1 in ESE 2 mph 6 mph 55% 0 in 696 W/m2
10:55 71.6 °F 53.6 °F 30.1 in SSE 0.9 mph 4 mph 53% 0 in 715 W/m2
11:00 71.8 °F 53.8 °F 30.1 in South 0.9 mph 6 mph 53% 0 in 726 W/m2
11:05 72.1 °F 54.1 °F 30.1 in ESE 2.9 mph 4 mph 53% 0 in 744 W/m2
11:10 72.1 °F 54.1 °F 30.1 in NNE 2.9 mph 3 mph 53% 0 in 749 W/m2
11:15 72.1 °F 54.1 °F 30.1 in SE 2 mph 6 mph 53% 0 in 789 W/m2
11:20 72.1 °F 54.1 °F 30.1 in NNW 4 mph 6 mph 53% 0 in 937 W/m2
11:25 72.1 °F 53.6 °F 30.1 in NNE 2 mph 4 mph 52% 0 in 958 W/m2
11:30 72 °F 54 °F 30.1 in West 2 mph 4 mph 53% 0 in 204 W/m2
11:35 71.4 °F 53.4 °F 30.1 in WNW 4 mph 7 mph 53% 0 in 206 W/m2
11:40 70.9 °F 54 °F 30.1 in NW 2.9 mph 3 mph 55% 0 in 190 W/m2
11:45 71.1 °F 53.1 °F 30.1 in West 2.9 mph 5 mph 53% 0 in 849 W/m2
11:50 71.8 °F 53.8 °F 30.1 in WNW 2.9 mph 4 mph 53% 0 in 881 W/m2
11:55 72.3 °F 53.8 °F 30.1 in NW 0.9 mph 5 mph 52% 0 in 821 W/m2
12:00 72.3 °F 53.2 °F 30.1 in West 2 mph 5 mph 51% 0 in 146 W/m2
12:05 71.8 °F 54.3 °F 30.1 in NW 2.9 mph 6 mph 54% 0 in 902 W/m2
12:10 72.1 °F 53.1 °F 30.1 in WNW 4 mph 8 mph 51% 0 in 911 W/m2
12:15 72.9 °F 54.1 °F 30.1 in North 2.9 mph 5 mph 52% 0 in 911 W/m2
12:20 73 °F 53.8 °F 30.1 in NW 2 mph 4 mph 51% 0 in 918 W/m2
12:25 73.2 °F 54 °F 30.1 in West 2.9 mph 6 mph 51% 0 in 923 W/m2
12:30 73.2 °F 53.4 °F 30.1 in West 6.9 mph 7 mph 50% 0 in 896 W/m2
12:35 73.6 °F 53.2 °F 30.1 in West 2 mph 11 mph 49% 0 in 905 W/m2
12:40 73.4 °F 53.1 °F 30.1 in NE 0.9 mph 3 mph 49% 0 in 918 W/m2
12:45 73.9 °F 54.1 °F 30.1 in West 4 mph 11 mph 50% 0 in 940 W/m2
12:50 74.1 °F 53.8 °F 30.1 in WNW 2.9 mph 7 mph 49% 0 in 930 W/m2
12:55 74.1 °F 53.8 °F 30.1 in West 0.9 mph 5 mph 49% 0 in 918 W/m2
13:00 74.1 °F 53.8 °F 30.1 in WNW 0.9 mph 3 mph 49% 0 in 951 W/m2
13:05 74.3 °F 53.4 °F 30.1 in Calm   3 mph 48% 0 in 202 W/m2
13:10 74.3 °F 53.4 °F 30.1 in WSW 2 mph 5 mph 48% 0 in 213 W/m2
13:15 74.5 °F 53.4 °F 30.1 in WNW 4 mph 8 mph 48% 0 in 942 W/m2
13:20 74.3 °F 53.4 °F 30.1 in NNW 4 mph 10 mph 48% 0 in 1000 W/m2
13:25 74.7 °F 53.6 °F 30.1 in WSW 4 mph 4 mph 48% 0 in 274 W/m2
13:30 73.9 °F 53.1 °F 30.1 in WNW 6 mph 8 mph 48% 0 in 172 W/m2
13:35 73.8 °F 52.9 °F 30.1 in West 2 mph 8 mph 48% 0 in 933 W/m2
13:40 73.9 °F 53.1 °F 30.1 in NW 2 mph 8 mph 48% 0 in 935 W/m2
13:45 74.5 °F 53.4 °F 30.1 in NNW 2.9 mph 6 mph 48% 0 in 953 W/m2
13:50 74.8 °F 53.8 °F 30.1 in West 10.1 mph 12 mph 48% 0 in 935 W/m2
13:55 74.8 °F 53.2 °F 30.1 in NW 2.9 mph 9 mph 47% 0 in 930 W/m2
14:00 75.4 °F 53.2 °F 30.1 in NW 6 mph 12 mph 46% 0 in 937 W/m2
14:05 75.6 °F 53.2 °F 30.1 in East 4.9 mph 7 mph 46% 0 in 868 W/m2
14:10 75.7 °F 52.9 °F 30.1 in NNW 0.9 mph 4 mph 45% 0 in 921 W/m2
14:15 75.9 °F 53.1 °F 30.1 in NW 2.9 mph 9 mph 45% 0 in 925 W/m2
14:20 76.1 °F 53.2 °F 30.1 in NNW 4.9 mph 11 mph 45% 0 in 944 W/m2
14:25 76.3 °F 54 °F 30.1 in WNW 4.9 mph 5 mph 46% 0 in 784 W/m2
14:30 76.3 °F 52.7 °F 30.1 in WSW 4 mph 6 mph 44% 0 in 854 W/m2
14:35 76.3 °F 52.7 °F 30.1 in WNW 4 mph 9 mph 44% 0 in 888 W/m2
14:40 76.3 °F 52.7 °F 30.1 in West 8.1 mph 8 mph 44% 0 in 856 W/m2
14:45 76.3 °F 53.4 °F 30.1 in WSW 2 mph 9 mph 45% 0 in 854 W/m2
14:50 76.3 °F 51.4 °F 30.1 in WSW 8.1 mph 11 mph 42% 0 in 599 W/m2
14:55 75.9 °F 51.8 °F 30.1 in NW 2 mph 4 mph 43% 0 in 842 W/m2
15:00 76.1 °F 52.5 °F 30.1 in NW 2 mph 8 mph 44% 0 in 865 W/m2
15:05 76.3 °F 52.2 °F 30.1 in SW 2 mph 3 mph 43% 0 in 791 W/m2
15:10 76.5 °F 52.9 °F 30.1 in NW 0.9 mph 4 mph 44% 0 in 868 W/m2
15:15 76.6 °F 52.5 °F 30.1 in West 2.9 mph 5 mph 43% 0 in 904 W/m2
15:21 77.4 °F 51.8 °F 30.1 in WSW 2.9 mph 8 mph 41% 0 in 823 W/m2
15:26 77.5 °F 52 °F 30.1 in WNW 2 mph 12 mph 41% 0 in 835 W/m2
15:31 77.5 °F 52 °F 30.1 in WSW 4 mph 8 mph 41% 0 in 791 W/m2
15:36 77.5 °F 52.7 °F 30.1 in West 4 mph 9 mph 42% 0 in 842 W/m2
15:41 77.4 °F 52.5 °F 30.1 in NNE 2.9 mph 5 mph 42% 0 in 875 W/m2
15:46 77.7 °F 52.2 °F 30.1 in WNW 6.9 mph 7 mph 41% 0 in 817 W/m2
15:51 78.3 °F 53.2 °F 30.1 in NNW 4 mph 4 mph 42% 0 in 860 W/m2
15:56 78.3 °F 54 °F 30.1 in SW 4 mph 4 mph 43% 0 in 856 W/m2
16:01 78.3 °F 52.7 °F 30.1 in NW 4 mph 6 mph 41% 0 in 759 W/m2
16:06 78.3 °F 53.2 °F 30.1 in West 6 mph 9 mph 42% 0 in 738 W/m2
16:11 77.5 °F 52 °F 30.1 in WSW 6.9 mph 9 mph 41% 0 in 701 W/m2
16:16 77.2 °F 52.3 °F 30.1 in WSW 2.9 mph 5 mph 42% 0 in 744 W/m2
16:21 77.5 °F 52.7 °F 30.1 in WSW 8.1 mph 12 mph 42% 0 in 677 W/m2
16:26 77.5 °F 53.2 °F 30.1 in NW 2 mph 6 mph 43% 0 in 759 W/m2
16:31 77.7 °F 52.2 °F 30 in WNW 0.9 mph 10 mph 41% 0 in 587 W/m2
16:36 77.7 °F 53.4 °F 30 in WSW 4 mph 7 mph 43% 0 in 784 W/m2
16:41 78.1 °F 52.5 °F 30 in WNW 2.9 mph 9 mph 41% 0 in 752 W/m2
16:46 78.3 °F 52.7 °F 30 in North 2.9 mph 9 mph 41% 0 in 733 W/m2
16:51 78.3 °F 52.7 °F 30 in SW 6 mph 8 mph 41% 0 in 752 W/m2
16:56 78.4 °F 52.2 °F 30 in West 4 mph 9 mph 40% 0 in 677 W/m2
17:01 77.9 °F 52.9 °F 30 in NW 2.9 mph 8 mph 42% 0 in 322 W/m2
17:06 77.9 °F 52.9 °F 30 in NNW 4 mph 9 mph 42% 0 in 708 W/m2
17:11 78.4 °F 53.4 °F 30 in WSW 8.1 mph 11 mph 42% 0 in 663 W/m2
17:16 78.1 °F 53.8 °F 30 in West 2.9 mph 6 mph 43% 0 in 592 W/m2
17:21 77.7 °F 53.4 °F 30 in West 4 mph 11 mph 43% 0 in 503 W/m2
17:26 77.7 °F 53.4 °F 30 in WNW 6.9 mph 8 mph 43% 0 in 663 W/m2
17:31 77.7 °F 53.4 °F 30 in NNW 2.9 mph 8 mph 43% 0 in 578 W/m2
17:36 77.9 °F 53.6 °F 30 in WNW 8.9 mph 9 mph 43% 0 in 636 W/m2
17:41 77.7 °F 52.2 °F 30 in WSW 4.9 mph 8 mph 41% 0 in 489 W/m2
17:46 77.7 °F 52.9 °F 30 in West 6 mph 6 mph 42% 0 in 403 W/m2
17:51 77.7 °F 54.1 °F 30 in West 2 mph 9 mph 44% 0 in 552 W/m2
17:56 77.7 °F 54.1 °F 30 in SSW 2 mph 4 mph 44% 0 in 584 W/m2
18:01 77.7 °F 54.1 °F 30 in WNW 4 mph 7 mph 44% 0 in 563 W/m2
18:06 78.1 °F 54.3 °F 30 in WSW 4.9 mph 10 mph 44% 0 in 545 W/m2
18:11 78.3 °F 53.2 °F 30 in WSW 2 mph 7 mph 42% 0 in 534 W/m2
18:16 78.3 °F 53.2 °F 30 in NW 4 mph 10 mph 42% 0 in 497 W/m2
18:21 78.3 °F 52.7 °F 30 in West 6 mph 7 mph 41% 0 in 483 W/m2
18:26 78.1 °F 53.1 °F 30 in West 4 mph 10 mph 42% 0 in 403 W/m2
18:31 78.1 °F 53.1 °F 30 in NW 0.9 mph 6 mph 42% 0 in 434 W/m2
18:36 78.1 °F 53.1 °F 30 in West 4 mph 10 mph 42% 0 in 431 W/m2
18:41 78.1 °F 53.8 °F 30 in WSW 2 mph 4 mph 43% 0 in 399 W/m2
18:46 78.3 °F 54 °F 30 in NW 2 mph 10 mph 43% 0 in 367 W/m2
18:51 78.3 °F 52.7 °F 30 in West 4 mph 8 mph 41% 0 in 276 W/m2
18:56 78.1 °F 53.1 °F 30 in WSW 8.9 mph 10 mph 42% 0 in 69 W/m2
19:01 77.7 °F 53.4 °F 30 in WNW 2 mph 9 mph 43% 0 in 60 W/m2
19:06 77.5 °F 52.7 °F 30 in NW 4 mph 6 mph 42% 0 in 58 W/m2
19:11 77.5 °F 52.7 °F 30 in West 2.9 mph 8 mph 42% 0 in 58 W/m2
19:16 77.7 °F 52.2 °F 30 in WNW 4 mph 5 mph 41% 0 in 56 W/m2
19:21 77.7 °F 52.9 °F 30 in WNW 2 mph 3 mph 42% 0 in 54 W/m2
19:26 77.7 °F 52.9 °F 30 in West 2.9 mph 9 mph 42% 0 in 53 W/m2
19:31 77.5 °F 52.7 °F 30 in West 6 mph 8 mph 42% 0 in 51 W/m2
19:36 77.2 °F 51.6 °F 30 in WSW 4 mph 9 mph 41% 0 in 49 W/m2
19:41 76.6 °F 51.3 °F 30 in WNW 4 mph 7 mph 41% 0 in 47 W/m2
19:46 76.6 °F 51.8 °F 30 in West 0.9 mph 9 mph 42% 0 in 47 W/m2
19:51 76.6 °F 51.8 °F 30 in Calm   6 mph 42% 0 in 47 W/m2
19:56 76.6 °F 52.5 °F 30 in West 4 mph 8 mph 43% 0 in 46 W/m2
20:01 76.5 °F 52.3 °F 30 in WNW 0.9 mph 7 mph 43% 0 in 123 W/m2
20:06 76.3 °F 52.2 °F 30 in WNW 2.9 mph 5 mph 43% 0 in 42 W/m2
20:11 76.1 °F 51.3 °F 30 in WNW 4 mph 7 mph 42% 0 in 40 W/m2
20:16 75.9 °F 51.8 °F 30 in WNW 4 mph 6 mph 43% 0 in 39 W/m2
20:21 75.7 °F 51.6 °F 30 in NNW 0.9 mph 7 mph 43% 0 in 37 W/m2
20:26 75.9 °F 52.5 °F 30 in West 2.9 mph 6 mph 44% 0 in 35 W/m2
20:31 75.6 °F 52.7 °F 30 in WNW 2 mph 3 mph 45% 0 in 33 W/m2
20:36 75.4 °F 52.5 °F 30 in West 4 mph 5 mph 45% 0 in 33 W/m2
20:41 74.8 °F 52.7 °F 30 in West 2 mph 4 mph 46% 0 in 32 W/m2
20:46 74.7 °F 52.5 °F 30 in West 2 mph 4 mph 46% 0 in 39 W/m2
20:51 74.5 °F 52.9 °F 30 in West 0.9 mph 3 mph 47% 0 in 58 W/m2
20:56 74.1 °F 52.5 °F 30.1 in West 2.9 mph 4 mph 47% 0 in 53 W/m2
21:01 73.9 °F 52.5 °F 30.1 in WSW 2.9 mph 4 mph 47% 0 in 44 W/m2
21:06 73.6 °F 52.7 °F 30.1 in WSW 0.9 mph 4 mph 48% 0 in 37 W/m2
21:11 73.2 °F 52.9 °F 30.1 in West 2 mph 4 mph 49% 0 in 30 W/m2
21:16 73 °F 52.7 °F 30.1 in West 2.9 mph 6 mph 49% 0 in 16 W/m2
21:21 72.7 °F 52.9 °F 30.1 in West 2.9 mph 3 mph 50% 0 in 11 W/m2
21:26 72.1 °F 53.1 °F 30.1 in West 2.9 mph 6 mph 51% 0 in 11 W/m2
21:31 72 °F 53.4 °F 30.1 in West 4 mph 6 mph 52% 0 in 7 W/m2
21:36 71.6 °F 53.1 °F 30.1 in WNW 2 mph 6 mph 52% 0 in 7 W/m2
21:41 71.4 °F 52.9 °F 30.1 in West 2.9 mph 4 mph 52% 0 in 5 W/m2
21:46 71.1 °F 53.1 °F 30.1 in West 2.9 mph 4 mph 53% 0 in 0 W/m2
21:51 70.9 °F 53.4 °F 30.1 in West 2.9 mph 7 mph 54% 0 in 0 W/m2
21:56 70.7 °F 53.2 °F 30.1 in WSW 2.9 mph 6 mph 54% 0 in 0 W/m2
22:01 70.3 °F 53.4 °F 30.1 in West 2.9 mph 4 mph 55% 0 in 0 W/m2
22:06 70.2 °F 53.2 °F 30.1 in WSW 2 mph 7 mph 55% 0 in 0 W/m2
22:11 70 °F 53.1 °F 30.1 in West 2 mph 4 mph 55% 0 in 0 W/m2
22:16 69.8 °F 52.9 °F 30.1 in West 2.9 mph 7 mph 55% 0 in 0 W/m2
22:21 69.6 °F 53.2 °F 30.1 in WNW 2.9 mph 6 mph 56% 0 in 0 W/m2
22:26 69.6 °F 53.2 °F 30.1 in West 2.9 mph 7 mph 56% 0 in 0 W/m2
22:31 69.4 °F 53.6 °F 30.1 in West 4 mph 6 mph 57% 0 in 0 W/m2
22:36 69.3 °F 53.4 °F 30.1 in West 2 mph 4 mph 57% 0 in 0 W/m2
22:41 69.1 °F 53.6 °F 30.1 in West 0.9 mph 6 mph 58% 0 in 0 W/m2
22:46 68.7 °F 53.4 °F 30.1 in West 2.9 mph 3 mph 58% 0 in 0 W/m2
22:51 68.5 °F 53.2 °F 30.1 in WSW 2 mph 6 mph 58% 0 in 0 W/m2
22:56 68.4 °F 53.4 °F 30.1 in West 2 mph 3 mph 59% 0 in 0 W/m2
23:01 68.4 °F 53.4 °F 30.1 in West 2 mph 3 mph 59% 0 in 0 W/m2
23:06 68.2 °F 53.2 °F 30.1 in West 2.9 mph 3 mph 59% 0 in 0 W/m2
23:11 67.8 °F 53.4 °F 30.1 in West 2 mph 2 mph 60% 0 in 0 W/m2
23:16 67.8 °F 53.4 °F 30.1 in West 2 mph 3 mph 60% 0 in 0 W/m2
23:21 67.6 °F 53.2 °F 30.1 in West 2 mph 2 mph 60% 0 in 0 W/m2
23:26 67.5 °F 53.1 °F 30.1 in West 2.9 mph 3 mph 60% 0 in 0 W/m2
23:32 67.3 °F 52.9 °F 30.1 in WSW 0.9 mph 4 mph 60% 0 in 0 W/m2
23:37 67.3 °F 52.9 °F 30.1 in WSW 0.9 mph 2 mph 60% 0 in 0 W/m2
23:42 67.3 °F 52.9 °F 30.1 in West 2 mph 2 mph 60% 0 in 0 W/m2
23:47 66.9 °F 52.5 °F 30.1 in West 0.9 mph 3 mph 60% 0 in 0 W/m2
23:52 66.7 °F 52.9 °F 30.1 in West 2 mph 3 mph 61% 0 in 0 W/m2
23:57 66.6 °F 52.7 °F 30.1 in WSW 4 mph 5 mph 61% 0 in 0 W/m2
Juneau County Weather
Compliments of Weather Underground - 4 mb